TimeGMT,TemperatureF,Dew PointF,Humidity,Sea Level PressureIn,VisibilityMPH,Wind Direction,Wind SpeedMPH,Gust SpeedMPH,PrecipitationIn,Events,Conditions,WindDirDegrees,DateUTC
12:00 AM,29,28,94,30.53,14,NW,1.2,,,,,310,2013-12-05 00:00:00
12:50 AM,28.4,26.6,93,30.51,6.2,North,3.5,-,N/A,,Unknown,350,2013-12-05 00:50:00
1:50 AM,26.6,26.6,100,30.48,6.2,North,3.5,-,N/A,,Unknown,350,2013-12-05 01:50:00
2:50 AM,33.8,33.8,100,30.45,6.2,West,10.4,-,N/A,,Mostly Cloudy,270,2013-12-05 02:50:00
3:00 AM,34,33,97,30.47,17,West,10.4,,,,Partly Cloudy,270,2013-12-05 03:00:00
3:50 AM,41.0,39.2,93,30.42,6.2,West,10.4,-,N/A,,Mostly Cloudy,280,2013-12-05 03:50:00
4:50 AM,46.4,39.2,76,30.39,6.2,West,24.2,-,N/A,,Mostly Cloudy,270,2013-12-05 04:50:00
5:50 AM,48.2,39.2,71,30.36,6.2,West,27.6,-,N/A,,Mostly Cloudy,260,2013-12-05 05:50:00
6:00 AM,48,40,64,30.36,11,West,27.6,,,,Mostly Cloudy,260,2013-12-05 06:00:00
6:50 AM,48.2,41.0,76,30.33,6.2,West,31.1,43.7,N/A,,Mostly Cloudy,260,2013-12-05 06:50:00
7:50 AM,50.0,42.8,76,30.30,6.2,West,31.1,-,N/A,,Mostly Cloudy,260,2013-12-05 07:50:00
8:50 AM,50.0,42.8,76,30.27,6.2,West,32.2,-,N/A,,Mostly Cloudy,260,2013-12-05 08:50:00
9:00 AM,50,43,69,30.30,6,West,32.2,,,,Partly Cloudy,260,2013-12-05 09:00:00
9:50 AM,50.0,42.8,76,30.27,6.2,West,40.3,51.8,N/A,,Mostly Cloudy,270,2013-12-05 09:50:00
10:50 AM,50.0,42.8,76,30.27,6.2,West,33.4,48.3,N/A,,Mostly Cloudy,270,2013-12-05 10:50:00
11:50 AM,50.0,42.8,76,30.27,6.2,West,31.1,-,N/A,,Mostly Cloudy,270,2013-12-05 11:50:00
12:00 PM,50,43,70,30.28,11,West,31.1,,,,Mostly Cloudy,270,2013-12-05 12:00:00
12:50 PM,51.8,44.6,76,30.24,6.2,West,33.4,-,N/A,,Mostly Cloudy,270,2013-12-05 12:50:00
1:50 PM,51.8,46.4,82,30.21,6.2,West,32.2,43.7,N/A,,Scattered Clouds,270,2013-12-05 13:50:00
2:50 PM,51.8,46.4,82,30.18,6.2,West,32.2,-,N/A,,Mostly Cloudy,280,2013-12-05 14:50:00
3:00 PM,52,46,73,30.21,12,West,32.2,,,,Partly Cloudy,280,2013-12-05 15:00:00
3:50 PM,48.2,44.6,87,30.21,6.2,NW,26.5,-,N/A,Rain,Light Rain Showers,310,2013-12-05 15:50:00
4:50 PM,44.6,42.8,93,30.24,6.2,North,13.8,-,N/A,,Mostly Cloudy,350,2013-12-05 16:50:00
5:50 PM,44.6,42.8,93,30.24,6.2,NNW,19.6,-,N/A,,Scattered Clouds,330,2013-12-05 17:50:00
6:00 PM,45,42,87,30.26,8,NNW,19.6,,,,Mostly Cloudy,330,2013-12-05 18:00:00
6:50 PM,46.4,42.8,87,30.27,6.2,NW,19.6,-,N/A,,Overcast,310,2013-12-05 18:50:00
7:50 PM,46.4,41.0,81,30.27,6.2,WNW,18.4,-,N/A,,Partly Cloudy,300,2013-12-05 19:50:00
8:50 PM,46.4,39.2,76,30.30,6.2,WNW,17.3,-,N/A,,Partly Cloudy,300,2013-12-05 20:50:00
9:00 PM,46,39,70,30.32,7,WNW,17.3,,,,Scattered Clouds,300,2013-12-05 21:00:00
9:50 PM,44.6,39.2,81,30.33,6.2,WNW,13.8,-,N/A,,Unknown,300,2013-12-05 21:50:00
10:50 PM,44.6,39.2,81,30.33,6.2,West,15.0,-,N/A,,Scattered Clouds,280,2013-12-05 22:50:00
11:50 PM,44.6,39.2,81,30.36,6.2,WNW,10.4,-,N/A,,Mostly Cloudy,300,2013-12-05 23:50:00